Weather History for KPHL - July, 2012

Change the Weather History Date:

Wednesday, July 4, 2012

  Actual Average Record
Temperature  
Mean Temperature 86 °F 78 °F  
Max Temperature 96 °F 87 °F 103 °F (1966)
Min Temperature 75 °F 68 °F 52 °F (1986)
Degree Days  
Heating Degree Days 0 0  
Month to date heating degree days 0 0  
Since 1 June heating degree days 7 11  
Since 1 July heating degree days 0 0  
Cooling Degree Days 21 13  
Month to date cooling degree days 77 49  
Year to date cooling degree days 511 398  
Since 1 June cooling degree days 347 307  
Growing Degree Days 36 (Base 50)    
Moisture  
Dew Point 68 °F    
Average Humidity 57    
Maximum Humidity 74    
Minimum Humidity 39    
Precipitation  
Precipitation T in 0.13 in 2.08 in (1981)
Month to date precipitation T 0.51  
Year to date precipitation 14.06 20.68  
Snow  
Snow 0.00 in 0.00 in 0.00 in (1870)
Month to date snowfall 0.0 0.0  
Since 1 June snowfall 0.0 0.0  
Since 1 July snowfall 0.0 0.0  
Snow Depth 0.00 in    
Sea Level Pressure  
Sea Level Pressure 29.83 in    
Wind  
Wind Speed 10 mph (WSW)    
Max Wind Speed 18 mph    
Max Gust Speed 24 mph    
Visibility 10 miles    
Events Rain    
T = Trace of Precipitation, MM = Missing Value Source: NWS Daily Summary

Daily Weather History Graph

Daily Weather History Graph

Search for Another Location

Airport or City:

Trip Planner

Search our weather history database for the weather conditions in past years. The results will help you decide how hot, cold, wet, or windy it might be!

Date:

Astronomy

Jul. 04, 2012 Rise Set
Actual Time 5:38 AM EDT 8:32 PM EDT
Civil Twilight 5:05 AM EDT 9:05 PM EDT
Nautical Twilight 4:24 AM EDT 9:45 PM EDT
Astronomical Twilight 3:37 AM EDT 10:33 PM EDT
Moon 9:09 PM EDT (7/4) 6:37 AM EDT (7/4)
Length of Visible Light 15h 59m
Length of Day
14h 54m
Full, 99% of the Moon is Illuminated
Jul 4
Full
Jul 10
Last Quarter
Jul 19
New
Jul 26
First Quarter
Aug 1
Full

Hourly Weather History & Observations

Time (EDT) Temp. Heat Index Dew Point Humidity Pressure Visibility Wind Dir Wind Speed Gust Speed Precip Events Conditions
12:54 AM 80.1 °F 82.7 °F 68.0 °F 67% 29.86 in 10.0 mi SW 5.8 mph - N/A   Overcast
1:54 AM 79.0 °F - 69.1 °F 72% 29.85 in 10.0 mi SSW 4.6 mph - N/A   Overcast
2:54 AM 78.1 °F - 69.1 °F 74% 29.84 in 10.0 mi SW 3.5 mph - N/A   Overcast
3:54 AM 79.0 °F - 64.0 °F 60% 29.84 in 10.0 mi WSW 8.1 mph - N/A   Overcast
4:54 AM 79.0 °F - 64.0 °F 60% 29.84 in 10.0 mi WSW 8.1 mph - N/A   Overcast
5:44 AM 78.8 °F - 66.2 °F 65% 29.86 in 8.0 mi West 8.1 mph - 0.00 in Rain Light Rain
5:54 AM 77.0 °F - 68.0 °F 74% 29.88 in 7.0 mi West 11.5 mph - 0.00 in   Overcast
5:58 AM 78.8 °F - 66.2 °F 65% 29.89 in 10.0 mi West 15.0 mph - N/A   Overcast
6:54 AM 75.0 °F - 68.0 °F 79% 29.87 in 10.0 mi NNW 10.4 mph - 0.00 in Rain Light Rain
7:54 AM 75.9 °F - 66.9 °F 74% 29.88 in 10.0 mi NNW 9.2 mph - 0.00 in   Mostly Cloudy
8:54 AM 79.0 °F - 66.9 °F 66% 29.87 in 10.0 mi North 3.5 mph - N/A   Scattered Clouds
9:54 AM 82.9 °F 84.6 °F 64.9 °F 54% 29.86 in 10.0 mi WSW 5.8 mph - N/A   Scattered Clouds
10:54 AM 86.0 °F 88.8 °F 66.9 °F 53% 29.86 in 10.0 mi WNW 11.5 mph 18.4 mph N/A   Partly Cloudy
11:54 AM 87.1 °F 89.9 °F 66.9 °F 51% 29.84 in 10.0 mi Variable 6.9 mph - N/A   Partly Cloudy
12:54 PM 90.0 °F 92.8 °F 66.9 °F 46% 29.83 in 10.0 mi WNW 10.4 mph - N/A   Partly Cloudy
1:54 PM 91.0 °F 93.8 °F 66.0 °F 44% 29.82 in 10.0 mi SW 11.5 mph - N/A   Partly Cloudy
2:54 PM 93.0 °F 95.9 °F 66.0 °F 41% 29.81 in 10.0 mi SW 11.5 mph 18.4 mph N/A   Scattered Clouds
3:54 PM 95.0 °F 97.9 °F 66.0 °F 38% 29.80 in 10.0 mi West 13.8 mph 20.7 mph N/A   Scattered Clouds
4:54 PM 93.9 °F 97.0 °F 66.0 °F 40% 29.78 in 10.0 mi West 17.3 mph 21.9 mph N/A   Mostly Cloudy
5:54 PM 93.9 °F 97.0 °F 66.0 °F 40% 29.78 in 10.0 mi West 13.8 mph - N/A   Mostly Cloudy
6:54 PM 93.0 °F 97.4 °F 68.0 °F 44% 29.77 in 10.0 mi West 15.0 mph - N/A   Mostly Cloudy
7:54 PM 91.0 °F 95.6 °F 69.1 °F 48% 29.76 in 10.0 mi SW 9.2 mph - N/A   Scattered Clouds
8:54 PM 89.1 °F 96.0 °F 72.0 °F 57% 29.77 in 10.0 mi SW 10.4 mph - N/A   Scattered Clouds
9:54 PM 87.1 °F 93.6 °F 72.0 °F 61% 29.79 in 10.0 mi SW 11.5 mph - N/A   Mostly Cloudy
10:54 PM 86.0 °F 93.0 °F 73.0 °F 65% 29.78 in 10.0 mi SW 9.2 mph - N/A   Mostly Cloudy
11:54 PM 84.9 °F 91.4 °F 73.0 °F 67% 29.79 in 10.0 mi SW 10.4 mph - N/A   Overcast